﻿測定場所 (Monitoring sites),日付 (Measurement date),時間 (Measurement time),線量率 最大値 (max) μGy/h,線量率 最小値 (min) μGy/h,線量率 平均値 (average) μGy/h,
江戸川 (Edogawa),2012-11-04,23:01～24:00,0.109,0.0970,0.102,
江戸川 (Edogawa),2012-11-04,22:01～23:00,0.107,0.0943,0.101,
江戸川 (Edogawa),2012-11-04,21:01～22:00,0.108,0.0965,0.101,
江戸川 (Edogawa),2012-11-04,20:01～21:00,0.108,0.0960,0.101,
江戸川 (Edogawa),2012-11-04,19:01～20:00,0.106,0.0954,0.101,
江戸川 (Edogawa),2012-11-04,18:01～19:00,0.111,0.0944,0.102,
江戸川 (Edogawa),2012-11-04,17:01～18:00,0.108,0.0957,0.102,
江戸川 (Edogawa),2012-11-04,16:01～17:00,0.108,0.0955,0.102,
江戸川 (Edogawa),2012-11-04,15:01～16:00,0.108,0.0939,0.103,
江戸川 (Edogawa),2012-11-04,14:01～15:00,0.108,0.0967,0.102,
江戸川 (Edogawa),2012-11-04,13:01～14:00,0.110,0.0978,0.103,
江戸川 (Edogawa),2012-11-04,12:01～13:00,0.108,0.0980,0.103,
江戸川 (Edogawa),2012-11-04,11:01～12:00,0.108,0.0971,0.103,
江戸川 (Edogawa),2012-11-04,10:01～11:00,0.112,0.0988,0.103,
江戸川 (Edogawa),2012-11-04,09:01～10:00,0.111,0.0962,0.102,
江戸川 (Edogawa),2012-11-04,08:01～09:00,0.109,0.0949,0.101,
江戸川 (Edogawa),2012-11-04,07:01～08:00,0.108,0.0956,0.101,
江戸川 (Edogawa),2012-11-04,06:01～07:00,0.107,0.0954,0.101,
江戸川 (Edogawa),2012-11-04,05:01～06:00,0.105,0.0956,0.101,
江戸川 (Edogawa),2012-11-04,04:01～05:00,0.113,0.0955,0.102,
江戸川 (Edogawa),2012-11-04,03:01～04:00,0.106,0.0938,0.102,
江戸川 (Edogawa),2012-11-04,02:01～03:00,0.109,0.0949,0.101,
江戸川 (Edogawa),2012-11-04,01:01～02:00,0.108,0.0950,0.101,
江戸川 (Edogawa),2012-11-04,00:01～01:00,0.109,0.0942,0.102,
江戸川 (Edogawa),2012-11-03,23:01～24:00,0.108,0.0947,0.102,
江戸川 (Edogawa),2012-11-03,22:01～23:00,0.106,0.0971,0.102,
江戸川 (Edogawa),2012-11-03,21:01～22:00,0.106,0.0975,0.101,
江戸川 (Edogawa),2012-11-03,20:01～21:00,0.105,0.0947,0.101,
江戸川 (Edogawa),2012-11-03,19:01～20:00,0.107,0.0966,0.101,
江戸川 (Edogawa),2012-11-03,18:01～19:00,0.107,0.0974,0.101,
江戸川 (Edogawa),2012-11-03,17:01～18:00,0.110,0.0963,0.102,
江戸川 (Edogawa),2012-11-03,16:01～17:00,0.109,0.0953,0.102,
江戸川 (Edogawa),2012-11-03,15:01～16:00,0.106,0.0963,0.101,
江戸川 (Edogawa),2012-11-03,14:01～15:00,0.109,0.0967,0.103,
江戸川 (Edogawa),2012-11-03,13:01～14:00,0.107,0.0971,0.102,
江戸川 (Edogawa),2012-11-03,12:01～13:00,0.109,0.0956,0.103,
江戸川 (Edogawa),2012-11-03,11:01～12:00,0.109,0.0976,0.102,
江戸川 (Edogawa),2012-11-03,10:01～11:00,0.106,0.0960,0.102,
江戸川 (Edogawa),2012-11-03,09:01～10:00,0.108,0.0933,0.101,
江戸川 (Edogawa),2012-11-03,08:01～09:00,0.107,0.0945,0.101,
江戸川 (Edogawa),2012-11-03,07:01～08:00,0.108,0.0947,0.102,
江戸川 (Edogawa),2012-11-03,06:01～07:00,0.106,0.0919,0.101,
江戸川 (Edogawa),2012-11-03,05:01～06:00,0.107,0.0971,0.102,
江戸川 (Edogawa),2012-11-03,04:01～05:00,0.107,0.0964,0.102,
江戸川 (Edogawa),2012-11-03,03:01～04:00,0.108,0.0952,0.102,
江戸川 (Edogawa),2012-11-03,02:01～03:00,0.108,0.0955,0.102,
江戸川 (Edogawa),2012-11-03,01:01～02:00,0.109,0.0980,0.102,
江戸川 (Edogawa),2012-11-03,00:01～01:00,0.107,0.0944,0.101,
江戸川 (Edogawa),2012-11-02,23:01～24:00,0.107,0.0948,0.101,
江戸川 (Edogawa),2012-11-02,22:01～23:00,0.107,0.0963,0.101,
江戸川 (Edogawa),2012-11-02,21:01～22:00,0.106,0.0952,0.101,
江戸川 (Edogawa),2012-11-02,20:01～21:00,0.109,0.0940,0.101,
江戸川 (Edogawa),2012-11-02,19:01～20:00,0.107,0.0943,0.101,
江戸川 (Edogawa),2012-11-02,18:01～19:00,0.107,0.0965,0.102,
江戸川 (Edogawa),2012-11-02,17:01～18:00,0.108,0.0956,0.102,
江戸川 (Edogawa),2012-11-02,16:01～17:00,0.107,0.0964,0.102,
江戸川 (Edogawa),2012-11-02,15:01～16:00,0.108,0.0977,0.102,
江戸川 (Edogawa),2012-11-02,14:01～15:00,0.108,0.0952,0.102,
江戸川 (Edogawa),2012-11-02,13:01～14:00,0.108,0.0983,0.102,
江戸川 (Edogawa),2012-11-02,12:01～13:00,0.109,0.0976,0.103,
江戸川 (Edogawa),2012-11-02,11:01～12:00,0.108,0.0969,0.103,
江戸川 (Edogawa),2012-11-02,10:01～11:00,0.109,0.0976,0.102,
江戸川 (Edogawa),2012-11-02,09:01～10:00,0.108,0.0959,0.102,
江戸川 (Edogawa),2012-11-02,08:01～09:00,0.107,0.0946,0.101,
江戸川 (Edogawa),2012-11-02,07:01～08:00,0.107,0.0962,0.101,
江戸川 (Edogawa),2012-11-02,06:01～07:00,0.107,0.0966,0.101,
江戸川 (Edogawa),2012-11-02,05:01～06:00,0.106,0.0954,0.101,
江戸川 (Edogawa),2012-11-02,04:01～05:00,0.105,0.0945,0.101,
江戸川 (Edogawa),2012-11-02,03:01～04:00,0.106,0.0959,0.101,
江戸川 (Edogawa),2012-11-02,02:01～03:00,0.108,0.0944,0.101,
江戸川 (Edogawa),2012-11-02,01:01～02:00,0.111,0.0970,0.102,
江戸川 (Edogawa),2012-11-02,00:01～01:00,0.107,0.0952,0.101,
江戸川 (Edogawa),2012-11-01,23:01～24:00,0.108,0.0962,0.101,
江戸川 (Edogawa),2012-11-01,22:01～23:00,0.107,0.0951,0.102,
江戸川 (Edogawa),2012-11-01,21:01～22:00,0.108,0.0957,0.102,
江戸川 (Edogawa),2012-11-01,20:01～21:00,0.111,0.0974,0.102,
江戸川 (Edogawa),2012-11-01,19:01～20:00,0.107,0.0951,0.102,
江戸川 (Edogawa),2012-11-01,18:01～19:00,0.108,0.0976,0.102,
江戸川 (Edogawa),2012-11-01,17:01～18:00,0.108,0.0957,0.102,
江戸川 (Edogawa),2012-11-01,16:01～17:00,0.109,0.0943,0.102,
江戸川 (Edogawa),2012-11-01,15:01～16:00,0.108,0.0956,0.102,
江戸川 (Edogawa),2012-11-01,14:01～15:00,0.106,0.0966,0.102,
江戸川 (Edogawa),2012-11-01,13:01～14:00,0.109,0.0964,0.102,
江戸川 (Edogawa),2012-11-01,12:01～13:00,0.110,0.0966,0.102,
江戸川 (Edogawa),2012-11-01,11:01～12:00,0.109,0.0983,0.103,
江戸川 (Edogawa),2012-11-01,10:01～11:00,0.107,0.0977,0.103,
江戸川 (Edogawa),2012-11-01,09:01～10:00,0.108,0.0973,0.103,
江戸川 (Edogawa),2012-11-01,08:01～09:00,0.107,0.0972,0.102,
江戸川 (Edogawa),2012-11-01,07:01～08:00,0.106,0.0941,0.101,
江戸川 (Edogawa),2012-11-01,06:01～07:00,0.107,0.0935,0.102,
江戸川 (Edogawa),2012-11-01,05:01～06:00,0.107,0.0943,0.100,
江戸川 (Edogawa),2012-11-01,04:01～05:00,0.109,0.0958,0.101,
江戸川 (Edogawa),2012-11-01,03:01～04:00,0.109,0.0944,0.102,
江戸川 (Edogawa),2012-11-01,02:01～03:00,0.106,0.0963,0.102,
江戸川 (Edogawa),2012-11-01,01:01～02:00,0.107,0.0946,0.101,
江戸川 (Edogawa),2012-11-01,00:01～01:00,0.107,0.0941,0.101,
江戸川 (Edogawa),2012-10-31,23:01～24:00,0.106,0.0937,0.102,
江戸川 (Edogawa),2012-10-31,22:01～23:00,0.106,0.0942,0.101,
江戸川 (Edogawa),2012-10-31,21:01～22:00,0.105,0.0928,0.101,
江戸川 (Edogawa),2012-10-31,20:01～21:00,0.106,0.0948,0.101,
江戸川 (Edogawa),2012-10-31,19:01～20:00,0.107,0.0946,0.100,
江戸川 (Edogawa),2012-10-31,18:01～19:00,0.109,0.0959,0.101,
江戸川 (Edogawa),2012-10-31,17:01～18:00,0.106,0.0965,0.101,
江戸川 (Edogawa),2012-10-31,16:01～17:00,0.107,0.0970,0.102,
江戸川 (Edogawa),2012-10-31,15:01～16:00,0.110,0.0930,0.102,
江戸川 (Edogawa),2012-10-31,14:01～15:00,0.110,0.0962,0.102,
江戸川 (Edogawa),2012-10-31,13:01～14:00,0.107,0.0959,0.102,
江戸川 (Edogawa),2012-10-31,12:01～13:00,0.108,0.0946,0.102,
江戸川 (Edogawa),2012-10-31,11:01～12:00,0.109,0.0957,0.102,
江戸川 (Edogawa),2012-10-31,10:01～11:00,0.109,0.0965,0.103,
江戸川 (Edogawa),2012-10-31,09:01～10:00,0.108,0.0959,0.102,
江戸川 (Edogawa),2012-10-31,08:01～09:00,0.107,0.0974,0.101,
江戸川 (Edogawa),2012-10-31,07:01～08:00,0.107,0.0961,0.101,
江戸川 (Edogawa),2012-10-31,06:01～07:00,0.106,0.0930,0.102,
江戸川 (Edogawa),2012-10-31,05:01～06:00,0.109,0.0951,0.101,
江戸川 (Edogawa),2012-10-31,04:01～05:00,0.108,0.0944,0.102,
江戸川 (Edogawa),2012-10-31,03:01～04:00,0.107,0.0963,0.102,
江戸川 (Edogawa),2012-10-31,02:01～03:00,0.107,0.0964,0.102,
江戸川 (Edogawa),2012-10-31,01:01～02:00,0.106,0.0956,0.102,
江戸川 (Edogawa),2012-10-31,00:01～01:00,0.109,0.0959,0.102,
江戸川 (Edogawa),2012-10-30,23:01～24:00,0.108,0.0939,0.102,
江戸川 (Edogawa),2012-10-30,22:01～23:00,0.109,0.0967,0.102,
江戸川 (Edogawa),2012-10-30,21:01～22:00,0.107,0.0929,0.101,
江戸川 (Edogawa),2012-10-30,20:01～21:00,0.107,0.0960,0.101,
江戸川 (Edogawa),2012-10-30,19:01～20:00,0.107,0.0959,0.101,
江戸川 (Edogawa),2012-10-30,18:01～19:00,0.107,0.0962,0.102,
江戸川 (Edogawa),2012-10-30,17:01～18:00,0.107,0.0951,0.101,
江戸川 (Edogawa),2012-10-30,16:01～17:00,0.107,0.0945,0.101,
江戸川 (Edogawa),2012-10-30,15:01～16:00,0.109,0.0966,0.102,
江戸川 (Edogawa),2012-10-30,14:01～15:00,0.108,0.0985,0.102,
江戸川 (Edogawa),2012-10-30,13:01～14:00,0.107,0.0950,0.102,
江戸川 (Edogawa),2012-10-30,12:01～13:00,0.108,0.0948,0.102,
江戸川 (Edogawa),2012-10-30,11:01～12:00,0.107,0.0966,0.102,
江戸川 (Edogawa),2012-10-30,10:01～11:00,0.106,0.0960,0.102,
江戸川 (Edogawa),2012-10-30,09:01～10:00,0.109,0.0971,0.102,
江戸川 (Edogawa),2012-10-30,08:01～09:00,0.108,0.0940,0.102,
江戸川 (Edogawa),2012-10-30,07:01～08:00,0.107,0.0970,0.102,
江戸川 (Edogawa),2012-10-30,06:01～07:00,0.109,0.0953,0.102,
江戸川 (Edogawa),2012-10-30,05:01～06:00,0.111,0.0957,0.101,
江戸川 (Edogawa),2012-10-30,04:01～05:00,0.106,0.0942,0.0999,
江戸川 (Edogawa),2012-10-30,03:01～04:00,0.106,0.0955,0.101,
江戸川 (Edogawa),2012-10-30,02:01～03:00,0.108,0.0967,0.101,
江戸川 (Edogawa),2012-10-30,01:01～02:00,0.106,0.0929,0.101,
江戸川 (Edogawa),2012-10-30,00:01～01:00,0.106,0.0924,0.101,
江戸川 (Edogawa),2012-10-29,23:01～24:00,0.106,0.0954,0.100,
江戸川 (Edogawa),2012-10-29,22:01～23:00,0.109,0.0958,0.101,
江戸川 (Edogawa),2012-10-29,21:01～22:00,0.107,0.0911,0.100,
江戸川 (Edogawa),2012-10-29,20:01～21:00,0.108,0.0932,0.101,
江戸川 (Edogawa),2012-10-29,19:01～20:00,0.108,0.0970,0.101,
江戸川 (Edogawa),2012-10-29,18:01～19:00,0.106,0.0954,0.101,
江戸川 (Edogawa),2012-10-29,17:01～18:00,0.110,0.0959,0.101,
江戸川 (Edogawa),2012-10-29,16:01～17:00,0.107,0.0968,0.101,
江戸川 (Edogawa),2012-10-29,15:01～16:00,0.107,0.0973,0.102,
江戸川 (Edogawa),2012-10-29,14:01～15:00,0.109,0.0960,0.102,
江戸川 (Edogawa),2012-10-29,13:01～14:00,0.109,0.0949,0.102,
江戸川 (Edogawa),2012-10-29,12:01～13:00,0.107,0.0960,0.101,
江戸川 (Edogawa),2012-10-29,11:01～12:00,0.105,0.0962,0.101,
江戸川 (Edogawa),2012-10-29,10:01～11:00,0.107,0.0950,0.101,
江戸川 (Edogawa),2012-10-29,09:01～10:00,0.106,0.0943,0.101,
江戸川 (Edogawa),2012-10-29,08:01～09:00,0.106,0.0928,0.0994,
江戸川 (Edogawa),2012-10-29,07:01～08:00,0.105,0.0918,0.0985,
江戸川 (Edogawa),2012-10-29,06:01～07:00,0.105,0.0948,0.0992,
江戸川 (Edogawa),2012-10-29,05:01～06:00,0.106,0.0924,0.100,
江戸川 (Edogawa),2012-10-29,04:01～05:00,0.112,0.0962,0.102,
江戸川 (Edogawa),2012-10-29,03:01～04:00,0.121,0.102,0.111,
江戸川 (Edogawa),2012-10-29,02:01～03:00,0.125,0.108,0.117,
江戸川 (Edogawa),2012-10-29,01:01～02:00,0.120,0.103,0.112,
江戸川 (Edogawa),2012-10-29,00:01～01:00,0.113,0.0976,0.103,
